Temperature
9 10 10 10 10 11 11 11 12 12 12 12 12 12 12 13 13 13 13 13 14 15 15 15 15 15 15 15 15 15 16 16 16 16 16 16 16 16 16 16 16 16 16
6 6 7 8 8 9 10 10 11 11 11 12 12 12 12 12 13 13 12 12 13 14 14 15 15 15 15 15 15 15 15 16 16 16 16 16 16 16 16 16 16 16 16
3 5 5 5 5 7 8 8 9 10 10 11 11 12 12 12 12 12 12 12 12 13 13 14 14 15 15 15 15 15 15 15 16 16 16 16 16 15 15 15 16 16 16
2 3 3 3 4 5 5 6 6 7 8 9 10 11 11 11 12 12 12 12 12 12 13 13 13 14 15 15 15 15 15 15 15 15 16 16 15 15 15 16 16 16 16
1 1 1 2 2 3 3 3 4 4 6 7 9 9 10 10 11 11 12 12 12 12 12 12 13 13 14 15 15 15 15 15 15 15 15 15 15 15 15 15 16 16 16
-1 -0 -0 1 1 1 2 2 3 3 4 5 7 8 9 10 10 11 11 12 12 12 12 12 12 13 13 14 14 14 15 15 14 15 15 15 15 15 15 15 15 15 16
-2 -3 -3 -2 -1 -1 0 0 1 1 2 3 5 7 9 9 10 10 11 11 12 12 12 12 12 12 12 13 14 14 14 14 14 14 15 15 14 15 15 15 15 15 15
-5 -5 -5 -5 -4 -3 -2 -2 -1 -1 -0 1 2 4 8 10 10 10 11 11 11 12 11 12 12 12 12 12 13 14 14 14 14 14 15 15 14 14 15 15 15 15 15
-6 -6 -5 -5 -5 -5 -5 -4 -4 -4 -3 -1 0 2 5 9 10 11 11 11 11 11 11 11 12 12 12 13 13 13 13 14 14 14 14 15 15 14 14 14 14 14 14
-6 -6 -6 -6 -6 -6 -6 -5 -5 -5 -4 -3 -2 0 2 4 6 9 10 10 10 11 11 11 11 12 12 13 13 13 13 13 14 14 14 14 15 14 14 14 14 14 14
-7 -7 -7 -7 -6 -6 -6 -6 -5 -5 -4 -4 -3 -2 -1 2 4 5 8 10 10 10 10 11 11 11 12 12 13 13 13 13 13 14 14 14 15 14 14 14 14 14 14
-7 -7 -7 -7 -7 -7 -6 -6 -5 -5 -4 -4 -4 -3 -2 -1 2 4 6 8 9 10 10 10 10 11 11 12 12 13 13 13 13 13 14 14 14 14 14 14 14 13 13
-9 -8 -8 -8 -7 -7 -6 -6 -5 -5 -4 -4 -3 -3 -3 -2 -0 2 4 6 7 9 9 9 10 10 11 11 12 12 13 13 13 13 13 13 14 14 14 14 13 13 13
-10 -9 -9 -8 -8 -7 -6 -6 -6 -5 -5 -4 -3 -3 -3 -2 -1 0 2 4 6 7 8 9 9 9 10 11 11 12 12 12 13 13 13 13 13 13 13 13 13 12 12
-10 -10 -9 -9 -8 -7 -7 -6 -6 -6 -5 -4 -3 -3 -2 -2 -1 0 1 3 4 6 8 9 9 8 10 10 11 11 11 12 12 12 13 13 13 13 13 13 12 12 12
-11 -10 -10 -9 -9 -8 -7 -7 -6 -6 -5 -4 -3 -2 -2 -1 -0 1 2 2 3 4 5 7 8 8 9 10 10 10 10 10 11 11 11 12 12 12 12 12 12 11 11
-12 -11 -10 -10 -9 -8 -8 -7 -7 -7 -6 -5 -3 -2 -1 -0 0 1 2 2 3 3 4 5 6 7 8 9 9 9 9 9 9 10 10 10 11 11 11 11 11 10 9
-12 -12 -11 -10 -10 -9 -8 -7 -7 -7 -6 -5 -4 -2 -1 -1 0 1 1 2 3 3 4 4 5 6 8 8 8 8 8 8 8 8 9 9 9 9 9 9 9 8 8
-13 -12 -12 -11 -10 -9 -8 -8 -7 -7 -6 -6 -5 -4 -2 -2 -1 -0 0 1 2 2 3 4 4 5 7 7 7 7 7 7 7 7 8 8 8 8 8 8 7 7 7
-13 -13 -12 -12 -11 -10 -8 -8 -7 -7 -7 -6 -6 -5 -4 -3 -2 -1 -0 0 1 2 3 3 3 4 6 7 7 6 6 6 6 6 6 6 7 7 7 7 7 6 6
-13 -13 -12 -12 -11 -10 -9 -8 -7 -7 -7 -7 -6 -6 -5 -4 -3 -2 -1 -0 0 1 2 2 3 4 5 5 6 6 6 6 6 5 6 6 6 6 6 6 6 6 6
-14 -13 -13 -13 -12 -11 -10 -9 -8 -8 -8 -7 -7 -7 -6 -5 -3 -3 -2 -1 -1 0 1 1 2 3 4 5 5 5 5 6 5 4 5 4 4 4 5 5 5 6 6
-14 -14 -14 -13 -13 -12 -10 -9 -9 -9 -8 -8 -8 -7 -7 -6 -5 -4 -3 -2 -2 -1 -0 0 1 1 2 3 4 5 5 5 4 4 4 4 4 4 4 4 5 5 5
-14 -14 -14 -13 -13 -12 -11 -10 -9 -9 -9 -8 -8 -8 -8 -7 -6 -5 -4 -3 -3 -3 -2 -1 -1 -0 0 1 2 3 4 5 5 4 4 3 3 3 3 3 3 3 4
-14 -14 -14 -13 -13 -12 -11 -9 -9 -9 -9 -9 -8 -8 -8 -8 -8 -7 -6 -5 -5 -5 -5 -4 -2 -1 -1 -0 1 2 3 3 3 3 3 3 2 2 2 2 1 2 2
-14 -14 -14 -13 -13 -12 -11 -10 -10 -9 -9 -9 -9 -9 -9 -9 -8 -8 -8 -8 -7 -7 -6 -5 -4 -3 -2 -1 -0 1 1 2 3 2 2 2 2 2 1 0 1 1 2
Wind_Speed
17 18 17 18 18 18 17 14 12 12 12 12 12 13 14 14 13 12 9 11 14 14 14 15 16 16 16 19 23 23 21 20 19 17 16 14 12 10 10 10 10 11 11
19 18 16 16 16 18 19 17 16 13 12 11 12 13 14 15 15 14 13 11 15 16 16 16 16 18 18 18 22 25 23 21 20 19 18 17 15 13 12 11 11 11 11
22 21 16 14 16 19 19 17 17 14 12 12 13 14 13 14 14 14 13 12 12 15 17 17 17 18 19 19 20 24 24 24 23 21 20 18 17 17 15 14 13 12 12
25 22 16 14 19 18 15 13 14 14 13 13 12 12 12 12 16 16 14 14 13 12 14 17 18 19 20 20 21 23 25 26 26 24 22 20 19 19 17 16 15 14 14
24 21 17 17 20 16 13 13 13 14 14 14 13 13 13 13 14 14 16 15 15 14 14 14 18 20 20 21 22 24 26 27 27 26 25 23 21 20 19 17 16 16 15
22 21 17 19 19 14 14 14 16 15 14 14 14 15 15 14 13 14 15 14 13 15 15 15 14 16 21 21 22 23 23 23 26 27 26 26 24 22 21 19 18 17 16
22 20 17 17 16 15 16 17 16 17 14 13 13 14 15 18 18 15 14 14 15 15 15 14 14 13 13 19 21 22 23 21 23 25 26 27 28 26 23 21 20 19 17
23 19 18 15 16 15 17 17 17 14 14 12 9 10 10 13 15 15 15 14 15 13 14 14 14 14 13 12 15 21 22 22 21 21 23 26 29 28 26 23 21 20 19
23 21 20 18 17 15 15 17 16 16 15 15 11 7 7 8 11 12 14 14 14 13 13 13 15 14 14 13 12 17 20 21 22 22 22 24 28 30 29 27 24 22 21
23 23 21 20 17 15 16 16 15 15 15 14 13 11 11 9 7 9 9 10 11 12 13 12 12 13 13 12 13 12 17 21 24 25 24 23 26 30 31 30 28 25 23
22 23 23 21 18 15 17 17 17 16 13 14 13 14 15 13 14 9 12 11 9 9 10 11 11 11 11 12 11 13 14 18 23 25 26 25 26 28 31 31 30 28 25
17 22 24 22 20 17 18 18 17 18 15 16 14 13 13 11 11 10 11 14 14 12 10 8 9 10 9 11 13 13 13 17 20 22 23 24 26 26 29 31 31 29 27
17 20 22 21 19 20 20 18 18 18 17 17 16 14 14 14 14 14 13 14 16 14 12 10 9 9 8 10 11 13 15 17 19 20 20 21 23 25 27 31 31 30 28
17 21 23 22 22 22 21 18 17 18 16 16 17 17 14 14 14 14 13 12 13 14 15 15 10 9 8 9 11 14 13 18 19 19 20 22 23 24 26 29 29 28 28
19 23 23 21 20 21 20 19 15 18 17 17 16 17 16 14 14 14 14 13 12 12 15 16 12 11 9 8 9 12 11 13 14 14 15 18 22 23 23 24 25 25 25
22 22 21 20 20 19 18 18 17 17 18 17 15 16 16 13 13 12 13 13 12 12 12 11 11 11 11 8 10 11 10 15 14 14 15 16 19 24 28 30 30 28 25
21 21 22 21 21 20 19 18 17 19 18 17 16 14 13 12 10 9 10 11 12 11 11 10 8 9 12 11 9 9 11 11 12 17 19 21 24 28 31 31 30 29 27
21 20 20 21 21 21 20 20 18 18 17 17 17 15 10 7 8 7 8 10 11 11 10 10 8 10 11 13 11 11 10 9 11 18 21 22 24 26 29 30 30 29 27
20 20 19 20 20 20 21 21 17 17 16 16 16 15 13 11 10 8 9 9 10 10 9 8 10 9 7 10 11 10 10 9 11 17 21 23 24 25 27 29 30 29 27
20 20 20 19 20 20 20 22 14 14 15 16 16 15 14 13 12 9 7 8 7 8 8 7 9 9 8 10 12 12 11 9 10 12 13 17 21 22 23 25 27 27 27
19 19 20 20 20 18 19 24 11 11 13 15 16 15 14 18 20 12 4 5 6 4 4 4 7 7 8 11 12 10 13 12 10 10 12 12 14 13 15 19 21 24 25
19 19 19 20 20 18 28 32 18 11 12 13 14 14 13 15 19 22 23 22 16 6 2 1 2 5 4 4 7 10 14 14 8 7 11 10 10 11 10 13 18 21 22
18 19 19 20 20 22 31 33 23 13 12 12 13 12 12 14 16 14 19 24 25 28 21 8 8 5 4 5 2 8 9 13 8 6 11 8 8 9 7 13 20 21 22
16 17 18 19 19 21 30 33 23 11 11 13 13 12 13 16 17 16 15 17 18 21 22 16 13 13 11 8 7 5 9 11 9 6 5 5 5 6 9 13 18 21 21
16 16 16 18 19 20 27 32 17 10 10 13 14 14 16 17 24 24 18 17 17 17 20 26 27 26 29 27 17 7 6 9 6 4 5 4 5 5 6 8 14 20 20
16 16 16 16 17 17 24 28 21 11 11 11 11 14 22 23 25 25 18 17 16 15 15 18 20 23 21 23 26 17 9 5 5 4 4 3 5 5 5 4 6 10 14
Wind_Direction
344 342 338 338 335 336 333 326 316 307 293 279 267 260 258 256 256 253 243 214 233 243 247 248 248 250 246 234 224 216 210 211 213 209 204 201 199 195 190 186 181 179 178
342 339 335 334 334 335 329 321 315 306 293 283 273 263 257 257 256 254 251 231 224 239 247 246 243 244 245 239 227 219 213 211 212 212 207 202 199 195 190 185 180 179 180
345 340 333 331 334 331 326 322 317 310 299 288 277 272 265 259 256 252 250 250 242 229 236 243 240 239 241 238 227 218 217 213 210 210 208 202 197 195 192 189 185 183 183
348 340 334 333 335 330 327 324 319 315 307 295 282 274 269 264 260 255 251 245 245 245 234 230 233 234 237 238 230 221 220 218 211 207 206 202 198 196 195 193 190 189 189
346 341 335 335 335 332 331 328 323 317 309 302 290 276 266 263 261 257 252 246 242 239 242 228 221 230 231 235 236 228 224 221 216 211 207 203 200 199 199 197 194 194 195
343 341 336 336 337 334 333 331 325 319 310 305 296 280 266 259 257 256 255 249 241 236 235 239 232 228 225 230 235 233 225 220 216 218 213 207 203 202 202 200 198 197 197
339 339 337 335 335 332 329 328 329 322 318 315 304 286 266 253 248 249 248 248 241 235 233 233 234 236 225 218 227 228 222 218 211 214 218 214 208 203 202 200 199 198 197
336 336 335 333 332 330 329 330 330 324 318 320 316 305 276 260 245 242 243 240 239 235 233 230 230 230 233 225 214 214 218 217 214 212 214 217 213 206 202 200 198 198 197
331 331 330 331 329 329 326 325 323 320 317 312 300 293 289 272 277 249 239 239 235 232 230 230 228 229 229 229 220 204 205 214 218 220 218 217 215 210 204 199 196 196 195
331 328 328 329 326 325 321 318 316 310 307 304 304 286 286 299 294 277 248 232 234 235 230 225 228 226 226 226 226 222 205 211 219 222 222 219 217 215 208 199 194 193 193
333 329 329 329 327 324 320 315 310 303 297 292 290 290 291 288 274 272 268 260 242 233 232 223 221 223 224 224 226 225 215 217 222 222 221 220 218 216 211 201 194 191 190
332 330 330 328 325 322 318 313 308 301 293 286 282 278 276 275 274 272 266 260 259 248 227 220 219 217 219 222 226 227 222 224 228 227 223 221 219 217 211 202 194 189 185
329 327 328 324 322 319 316 311 311 307 296 286 279 275 270 267 271 273 274 268 261 256 241 226 226 220 216 220 224 216 222 225 227 226 224 222 219 216 209 200 192 187 180
325 324 324 321 320 319 317 313 314 314 305 293 280 273 270 267 266 264 264 266 262 253 245 239 227 223 219 219 222 205 220 215 215 218 221 220 216 209 204 193 184 180 169
324 325 324 323 321 319 319 317 314 318 315 304 286 271 264 263 260 259 256 252 255 253 245 241 230 220 211 213 204 206 206 186 187 194 200 203 204 198 188 164 154 151 142
326 325 326 326 323 322 323 319 316 318 319 312 299 276 262 259 256 253 250 244 239 248 256 255 237 218 201 198 195 196 176 147 145 143 139 139 142 141 137 133 131 132 132
327 328 328 327 327 327 329 322 319 324 325 322 317 296 270 264 264 263 256 245 236 232 242 258 250 217 197 187 178 174 156 150 142 133 127 122 121 122 124 126 129 132 134
330 330 330 329 330 331 331 326 320 331 332 332 331 328 315 302 299 299 289 264 244 231 230 244 232 210 198 183 168 160 150 141 140 136 129 125 124 126 128 130 133 136 138
334 334 334 332 331 332 329 328 322 334 337 337 339 341 342 339 326 310 306 288 259 238 224 232 235 209 186 169 158 148 137 135 140 139 133 133 133 134 136 138 139 140 141
337 336 336 335 333 332 329 329 327 339 343 343 344 348 351 353 341 311 300 299 272 237 224 223 224 199 175 166 163 150 138 132 135 142 137 136 137 137 140 142 142 142 142
338 337 338 338 338 336 333 335 336 348 350 348 349 351 353 4 2 6 358 329 299 258 228 211 197 177 164 166 167 163 145 129 121 136 136 142 143 140 139 142 144 145 143
338 339 339 339 340 339 336 344 353 353 354 354 355 356 358 8 12 20 36 38 33 22 345 284 154 125 106 128 148 154 147 143 134 117 115 115 136 140 147 152 147 143 141
336 336 337 339 340 339 339 345 351 353 360 3 1 3 12 15 23 24 35 39 34 36 40 47 63 63 61 21 105 154 169 153 127 123 125 104 97 99 100 115 131 133 133
332 332 334 338 340 340 340 342 346 357 7 9 7 18 27 26 30 32 37 43 40 36 38 43 50 52 57 43 31 67 102 102 93 52 87 112 98 78 66 85 103 112 117
330 330 333 337 341 342 344 345 7 13 12 10 17 34 41 39 36 36 35 38 38 30 32 42 46 45 44 46 43 62 104 128 113 56 31 100 120 93 65 53 76 99 103
329 330 331 336 343 346 347 354 18 15 15 10 16 37 46 46 41 40 38 37 37 29 28 32 37 38 40 39 40 38 34 84 105 88 31 82 125 120 96 51 44 69 89
Height
1519 1516 1513 1510 1508 1505 1504 1502 1501 1499 1498 1498 1497 1497 1498 1498 1498 1498 1497 1496 1497 1499 1501 1503 1505 1508 1511 1514 1516 1519 1521 1523 1525 1528 1530 1532 1534 1537 1539 1541 1543 1545 1547
1516 1512 1509 1506 1503 1500 1498 1497 1496 1494 1493 1492 1492 1492 1492 1492 1492 1492 1492 1491 1491 1492 1494 1496 1498 1502 1505 1508 1510 1513 1516 1519 1522 1524 1527 1529 1531 1534 1536 1539 1541 1542 1544
1513 1508 1505 1501 1498 1494 1492 1490 1489 1488 1487 1486 1485 1485 1485 1485 1486 1486 1486 1486 1486 1486 1488 1490 1491 1494 1498 1502 1505 1507 1510 1514 1517 1520 1523 1526 1528 1531 1533 1536 1538 1540 1542
1509 1504 1501 1497 1493 1489 1486 1484 1483 1482 1481 1479 1478 1478 1478 1478 1478 1479 1479 1480 1480 1481 1482 1484 1486 1488 1491 1495 1499 1502 1504 1508 1512 1516 1519 1522 1525 1527 1530 1532 1535 1537 1540
1505 1501 1497 1493 1488 1485 1481 1479 1477 1476 1474 1472 1471 1470 1470 1471 1471 1471 1472 1473 1473 1474 1476 1478 1480 1482 1484 1488 1492 1495 1499 1503 1507 1512 1515 1518 1521 1524 1526 1529 1532 1534 1537
1502 1497 1493 1489 1485 1480 1477 1473 1471 1469 1468 1466 1464 1463 1463 1463 1463 1464 1464 1465 1466 1467 1469 1472 1474 1476 1478 1481 1485 1489 1493 1498 1501 1506 1511 1514 1517 1519 1522 1525 1528 1531 1533
1500 1495 1490 1485 1481 1477 1473 1469 1465 1462 1461 1460 1458 1456 1455 1455 1455 1456 1457 1458 1459 1461 1462 1464 1467 1470 1472 1474 1478 1482 1487 1492 1495 1499 1504 1508 1512 1515 1518 1521 1524 1527 1530
1498 1493 1488 1484 1479 1473 1469 1465 1461 1457 1456 1457 1455 1452 1449 1449 1447 1448 1449 1450 1451 1453 1455 1457 1460 1462 1465 1468 1470 1475 1480 1485 1489 1494 1497 1501 1506 1510 1513 1517 1520 1523 1526
1495 1491 1487 1482 1476 1471 1466 1461 1458 1454 1451 1450 1452 1451 1448 1443 1442 1441 1441 1442 1444 1446 1448 1450 1453 1455 1458 1461 1464 1467 1472 1477 1482 1486 1491 1495 1499 1503 1507 1512 1515 1519 1522
1491 1487 1483 1478 1473 1468 1463 1458 1455 1451 1448 1445 1443 1443 1443 1441 1440 1436 1436 1436 1437 1438 1440 1442 1445 1448 1451 1453 1456 1460 1464 1469 1475 1479 1484 1488 1492 1497 1501 1505 1509 1514 1518
1486 1482 1478 1474 1469 1464 1459 1454 1450 1447 1444 1441 1438 1436 1434 1434 1434 1434 1432 1432 1432 1432 1433 1435 1437 1440 1443 1446 1449 1453 1456 1461 1466 1471 1476 1481 1485 1490 1494 1499 1503 1508 1512
1482 1477 1473 1468 1464 1459 1454 1449 1444 1440 1437 1434 1431 1429 1428 1428 1427 1428 1427 1427 1428 1429 1429 1429 1431 1434 1436 1438 1442 1446 1449 1453 1458 1462 1467 1473 1478 1483 1488 1492 1496 1501 1506
1479 1473 1468 1463 1459 1454 1449 1444 1438 1433 1429 1426 1423 1421 1420 1420 1420 1421 1422 1422 1422 1423 1424 1424 1425 1428 1430 1432 1434 1438 1442 1446 1450 1454 1459 1464 1470 1476 1481 1486 1490 1495 1499
1477 1471 1465 1460 1455 1450 1444 1439 1433 1426 1421 1418 1415 1413 1411 1410 1412 1413 1415 1417 1417 1417 1417 1418 1420 1421 1424 1426 1428 1431 1435 1438 1443 1447 1451 1456 1462 1468 1474 1479 1484 1489 1493
1475 1468 1463 1457 1452 1446 1441 1435 1429 1422 1415 1411 1408 1406 1403 1402 1403 1405 1408 1411 1412 1410 1410 1412 1414 1415 1418 1421 1423 1425 1428 1431 1435 1440 1444 1449 1455 1461 1467 1473 1478 1483 1487
1472 1465 1459 1453 1448 1443 1437 1431 1426 1419 1412 1405 1402 1399 1397 1396 1397 1398 1400 1402 1404 1405 1404 1406 1408 1410 1412 1415 1418 1420 1423 1426 1430 1434 1437 1442 1447 1453 1460 1466 1472 1477 1483
1469 1462 1455 1449 1444 1439 1433 1428 1423 1416 1408 1401 1396 1393 1391 1391 1391 1392 1392 1394 1395 1397 1397 1400 1403 1404 1406 1409 1412 1416 1419 1422 1426 1430 1434 1438 1443 1448 1454 1460 1466 1472 1478
1466 1460 1453 1446 1440 1435 1429 1423 1419 1413 1405 1398 1392 1388 1386 1385 1384 1384 1385 1386 1387 1389 1392 1394 1397 1399 1401 1403 1407 1411 1415 1419 1424 1428 1433 1437 1442 1447 1452 1456 1462 1468 1475
1463 1457 1451 1444 1438 1432 1426 1419 1415 1410 1403 1396 1389 1384 1381 1379 1379 1378 1378 1378 1380 1382 1384 1387 1391 1394 1395 1398 1402 1407 1412 1417 1422 1426 1431 1437 1443 1448 1452 1457 1462 1468 1474
1462 1455 1448 1443 1436 1430 1423 1417 1412 1407 1400 1394 1388 1382 1379 1376 1375 1374 1373 1373 1374 1375 1377 1379 1385 1387 1388 1391 1397 1402 1408 1414 1419 1425 1430 1436 1443 1449 1454 1458 1463 1468 1474
1461 1454 1447 1441 1435 1428 1421 1416 1410 1405 1400 1394 1389 1384 1379 1377 1374 1372 1371 1370 1370 1370 1370 1372 1378 1379 1381 1385 1391 1397 1402 1409 1417 1424 1429 1435 1441 1446 1452 1459 1464 1468 1474
1460 1453 1447 1440 1434 1428 1421 1416 1410 1406 1401 1396 1391 1386 1382 1378 1374 1372 1370 1368 1367 1366 1366 1368 1371 1372 1375 1379 1386 1392 1399 1405 1414 1420 1425 1433 1440 1446 1451 1457 1462 1467 1471
1459 1452 1446 1440 1434 1427 1421 1416 1410 1407 1403 1398 1394 1389 1385 1381 1377 1373 1370 1368 1367 1365 1365 1366 1367 1369 1372 1376 1382 1389 1396 1402 1409 1416 1424 1430 1437 1442 1449 1454 1460 1465 1469
1458 1452 1446 1441 1435 1428 1421 1415 1411 1408 1404 1400 1396 1393 1389 1385 1381 1377 1373 1371 1369 1366 1366 1365 1367 1369 1371 1375 1380 1385 1389 1397 1406 1413 1421 1427 1434 1440 1446 1452 1457 1462 1466
1458 1452 1447 1441 1436 1429 1423 1417 1411 1410 1406 1403 1399 1396 1393 1389 1385 1380 1377 1375 1373 1372 1370 1368 1368 1369 1371 1375 1379 1384 1389 1395 1402 1410 1417 1423 1430 1437 1443 1448 1453 1458 1462
1458 1453 1447 1442 1437 1432 1425 1421 1416 1412 1409 1406 1403 1400 1397 1394 1390 1386 1383 1380 1378 1378 1375 1373 1372 1372 1375 1377 1380 1385 1390 1395 1400 1408 1414 1419 1426 1433 1441 1446 1450 1453 1458